Location: Newark
(63.1158°N, 8.1461°E)
Time: 12:28:41
(UTC+00:00)

Envisat - Pass Details

Date: 13 December 2019
Orbit: 764 x 766 km, 98.1° (Epoch: 20 January)

Event Time Altitude Azimuth Distance (km) Brightness Sun altitude
Rises 19:10:21 0° 226° (SW) 3,233 6.6 -32.7°
Reaches altitude 10° 19:13:51 10° 251° (WSW) 2,312 6.1 -33.1°
Maximum altitude 19:16:28 14° 282° (WNW) 2,050 6.0 -33.4°
Drops below altitude 10° 19:19:05 10° 314° (NW) 2,319 6.1 -33.7°
Sets 19:22:37 0° 339° (NNW) 3,251 6.7 -34.1°
